This is the latest recevied weather packets stored in our database for station/object N2ZVN. If no packets are shown the sender has not sent any weather packets the latest 10 day(s).
| Time | Temp. | Humidity | Pressure | Rain* | Wind** | Luminosity | Snow |
|---|---|---|---|---|---|---|---|
| 1777514127 | 7.78° C | 97% | 1009.5 hPa | 0 mm | - | 0 W/m² | - |
| 1777513824 | 7.78° C | 97% | 1009.5 hPa | 0 mm | - | 0 W/m² | - |
| 1777513521 | 7.78° C | 97% | 1009.3 hPa | 0 mm | - | 0 W/m² | - |
| 1777513218 | 7.78° C | 97% | 1009.3 hPa | 0 mm | - | 0 W/m² | - |
| 1777512914 | 7.78° C | 97% | 1009.2 hPa | 1.78 mm | - | 0 W/m² | - |
| 1777512611 | 7.78° C | 97% | 1009.2 hPa | 1.78 mm | - | 0 W/m² | - |
| 1777512308 | 7.78° C | 97% | 1009.3 hPa | 1.78 mm | - | 0 W/m² | - |
| 1777512004 | 7.78° C | 97% | 1009.1 hPa | 1.78 mm | - | 0 W/m² | - |
| 1777511702 | 7.78° C | 97% | 1009 hPa | 1.27 mm | - | 0 W/m² | - |
| 1777511400 | 7.78° C | 96% | 1008.9 hPa | 0 mm | - | 0 W/m² | - |
| 1777511095 | 7.78° C | 97% | 1009 hPa | 1.78 mm | - | 0 W/m² | - |
| 1777510791 | 7.78° C | 97% | 1008.9 hPa | 1.78 mm | - | 0 W/m² | - |
| 1777510489 | 7.78° C | 97% | 1009 hPa | 0 mm | - | 0 W/m² | - |
| 1777510184 | 7.78° C | 97% | 1008.7 hPa | 0 mm | - | 0 W/m² | - |
| 1777509881 | 7.78° C | 97% | 1008.9 hPa | 0 mm | - | 0 W/m² | - |
| 1777509576 | 7.78° C | 97% | 1008.7 hPa | 0 mm | - | 0 W/m² | - |
| 1777509273 | 7.78° C | 96% | 1008.7 hPa | 0 mm | - | 0 W/m² | - |
| 1777508971 | 7.78° C | 96% | 1008.7 hPa | 0 mm | - | 0 W/m² | - |
| 1777508668 | 7.78° C | 96% | 1008.6 hPa | 0 mm | - | 0 W/m² | - |
| 1777508365 | 7.78° C | 96% | 1008.6 hPa | 1.27 mm | - | 0 W/m² | - |
| 1777508062 | 7.78° C | 96% | 1008.5 hPa | 3.05 mm | - | 0 W/m² | - |
| 1777507759 | 7.78° C | 96% | 1008.7 hPa | 0 mm | - | 1 W/m² | - |
| 1777507455 | 7.78° C | 96% | 1008.5 hPa | 0 mm | - | 1 W/m² | - |
| 1777507153 | 7.22° C | 96% | 1008.6 hPa | 0 mm | - | 2 W/m² | - |
| 1777506851 | 7.22° C | 96% | 1008.5 hPa | 0 mm | - | 3 W/m² | - |
* Rain latest hour (hover to see other rain measurements)
** Current wind speed in m/s (hover to see current wind gust speed)